This demonstration page uses our WeatherBlox Daily Observations layout. Learn more.

Left ArrowRight Arrow

Hourly Observations for June 23, 2015

Temp ( °F °C ) Dew Point ( °F °C ) Humidity (%) Winds ( mph kmh ) Pressure ( in mb ) Visibility ( mi km ) Precip ( " mm )
12:54 am 00:54 Clear 63 17.2 53 11.7 70 70 N 8 13 30.04 1017 10 16.0934 N/A
1:54 am 01:54 Clear 63 17 54 12 73 73 N 6 9 30.09 1019 10 16.0934 N/A
2:54 am 02:54 Clear 61 16.1 54 12.2 78 78 S 6 9 30.09 1019 10 16.0934 N/A
3:54 am 03:54 Clear 65 18.3 54 12.2 68 68 N N/A 30.1 1019 10 16.0934 N/A
4:54 am 04:54 Clear 58 14.4 54 12.2 87 87 N 6 9 30.11 1020 10 16.0934 N/A
5:54 am 05:54 Clear 59 15 54 12.2 83 83 NW 3 6 30.11 1020 10 16.0934 N/A
6:54 am 06:54 Sunny 60 15.6 56 13.3 86 86 NNW 5 7 30.12 1020 10 16.0934 N/A
7:54 am 07:54 Sunny 66 18.9 58 14.4 75 75 N 3 6 30.12 1020 10 16.0934 N/A
8:54 am 08:54 Sunny 72 22.2 58 14.4 61 61 E 7 11 30.13 1020 10 16.0934 N/A
9:54 am 09:54 Mostly Sunny 75 23.9 57 13.9 54 54 ESE 6 9 30.15 1021 10 16.0934 N/A
10:54 am 10:54 Partly Cloudy 75 23.9 55 12.8 50 50 ESE 7 11 30.15 1021 N/A N/A
11:54 am 11:54 Partly Cloudy 76 24.4 55 12.8 48 48 SE 8 13 30.16 1022 10 16.0934 N/A
12:54 pm 12:54 Sunny 78 25.6 55 12.8 45 45 ESE 10 17 30.13 1020 10 16.0934 N/A
1:54 pm 13:54 Mostly Cloudy 77 25 54 12.2 45 45 E 7 11 30.13 1020 10 16.0934 N/A
2:27 pm 14:27 Partly Cloudy with Nearby Thunderstorms 74 23.3 56 13.3 54 54 S 8 13 30.12 1020 10 16.0934 N/A
2:35 pm 14:35 Mostly Cloudy with Thunderstorms 74 23.3 58 14.4 57 57 S 13 20 30.15 1021 10 16.0934 N/A
2:54 pm 14:54 Mostly Cloudy with Light Rain 72 22.2 60 15.6 66 66 S 24 39 30.12 1020 10 16.0934 N/A
3:54 pm 15:54 Cloudy 69 20.6 57 13.9 66 66 SSE 14 22 30.13 1020 10 16.0934 N/A
4:54 pm 16:54 Cloudy with Light Rain 72 22.2 58 14.4 61 61 SSE 9 15 30.12 1020 10 16.0934 N/A
5:54 pm 17:54 Cloudy 74 23.3 52 11.1 46 46 S 13 20 30.11 1020 10 16.0934 N/A
6:54 pm 18:54 Cloudy 72 22.2 60 15.6 66 66 SSE 6 9 30.1 1019 10 16.0934 N/A
7:54 pm 19:54 Cloudy 73 22.8 56 13.3 55 55 ESE 7 11 30.08 1019 10 16.0934 N/A
8:54 pm 20:54 Mostly Cloudy 72 22.2 57 13.9 59 59 ESE 7 11 30.07 1018 10 16.0934 N/A
9:54 pm 21:54 Cloudy 72 22.2 58 14.4 61 61 ESE 6 9 30.06 1018 10 16.0934 N/A
10:54 pm 22:54 Mostly Cloudy 71 21.7 58 14.4 63 63 ESE 7 11 30.06 1018 10 16.0934 N/A
11:54 pm 23:54 Mostly Cloudy 69 20.6 59 15 70 70 SE 7 11 30.07 1018 10 16.0934 N/A

Powered by AerisWeather